Danville, VA

1:46 AM EDT on April 26, 2018 (GMT -0400)
Danville Regional

Weather History for KDAN - March, 2012

Change the Weather History Date:

Wednesday, March 14, 2012

  Actual Average Record
Temperature  
Mean Temperature 66 °F 48 °F  
Max Temperature 82 °F 58 °F 89 °F (1990)
Min Temperature 50 °F 38 °F 15 °F (1960)
Degree Days  
Heating Degree Days 0 17  
Month to date heating degree days 201 267  
Since 1 July heating degree days 2926 3268  
Cooling Degree Days 1 0  
Month to date cooling degree days 1 0  
Year to date cooling degree days 1 0  
Growing Degree Days 16 (Base 50)    
Moisture  
Dew Point 49 °F    
Average Humidity 63    
Maximum Humidity 100    
Minimum Humidity 26    
Precipitation  
Precipitation 0.00 in 0.14 in 1.83 in (1975)
Month to date precipitation 0.71 1.56  
Year to date precipitation 4.82 7.99  
Snow  
Snow 0.00 in - - ()
Month to date snowfall 0.0  
Since 1 July snowfall 3.0  
Snow Depth 0.00 in    
Sea Level Pressure  
Sea Level Pressure 30.16 in    
Wind  
Wind Speed 2 mph (SW)    
Max Wind Speed 13 mph    
Max Gust Speed 16 mph    
Visibility 9 miles    
Events      
T = Trace of Precipitation, MM = Missing Value Source: NWS Daily Summary

Daily Weather History Graph

Daily Weather History Graph

Search for Another Location

Airport or City:

Astronomy

Mar. 14, 2012 Rise Set
Actual Time 7:29 AM EDT 7:24 PM EDT
Civil Twilight 7:03 AM EDT 7:50 PM EDT
Nautical Twilight 6:33 AM EDT 8:20 PM EDT
Astronomical Twilight 6:03 AM EDT 8:50 PM EDT
Moon 1:47 AM EDT (3/14) 11:49 AM EDT (3/14)
Length of Visible Light 12h 46m
Length of Day
11h 55m
Waning Gibbous, 54% of the Moon is Illuminated
Mar 14
Waning Gibbous
Mar 14
Last Quarter
Mar 22
New
Mar 30
First Quarter
Apr 6
Full

Hourly Weather History & Observations

Time (EDT) Temp. Dew Point Humidity Pressure Visibility Wind Dir Wind Speed Gust Speed Precip Events Conditions
12:53 AM 60.1 °F 54.0 °F 80% 30.12 in 10.0 mi SSW 5.8 mph - N/A   Clear
1:53 AM 57.9 °F 54.0 °F 87% 30.13 in 10.0 mi SSW 5.8 mph - N/A   Scattered Clouds
2:53 AM 57.0 °F 54.0 °F 89% 30.13 in 10.0 mi SW 4.6 mph - N/A   Clear
3:53 AM 55.9 °F 53.1 °F 90% 30.12 in 10.0 mi SSW 4.6 mph - N/A   Clear
4:53 AM 51.8 °F 51.8 °F 100% 30.14 in 8.0 mi SSW 4.6 mph - N/A   Clear
5:53 AM 51.1 °F 50.0 °F 96% 30.13 in 6.0 mi SSW 3.5 mph - N/A   Clear
6:53 AM 51.1 °F 50.0 °F 96% 30.15 in 5.0 mi Calm Calm - N/A   Clear
7:53 AM 53.1 °F 53.1 °F 100% 30.17 in 6.0 mi Calm Calm - N/A   Clear
8:53 AM 57.0 °F 55.0 °F 93% 30.19 in 10.0 mi Calm Calm - N/A   Clear
9:53 AM 66.0 °F 55.0 °F 68% 30.20 in 10.0 mi North 4.6 mph - N/A   Clear
10:53 AM 72.0 °F 54.0 °F 53% 30.21 in 10.0 mi SW 3.5 mph - N/A   Clear
11:53 AM 75.9 °F 50.0 °F 40% 30.20 in 10.0 mi North 5.8 mph 16.1 mph N/A   Clear
12:53 PM 77.0 °F 46.9 °F 34% 30.19 in 10.0 mi Calm Calm - N/A   Clear
1:53 PM 79.0 °F 44.1 °F 29% 30.17 in 10.0 mi NNE 3.5 mph - N/A   Clear
2:53 PM 79.0 °F 44.1 °F 29% 30.14 in 10.0 mi Calm Calm - N/A   Clear
3:53 PM 80.1 °F 44.1 °F 28% 30.13 in 10.0 mi Calm Calm - N/A   Clear
4:53 PM 81.0 °F 45.0 °F 28% 30.12 in 10.0 mi NNW 5.8 mph - N/A   Clear
5:53 PM 80.1 °F 42.1 °F 26% 30.12 in 10.0 mi SSW 3.5 mph - N/A   Clear
6:53 PM 75.9 °F 44.1 °F 32% 30.13 in 10.0 mi Calm Calm - N/A   Clear
7:53 PM 64.9 °F 45.0 °F 48% 30.14 in 10.0 mi Calm Calm - N/A   Clear
8:53 PM 64.9 °F 46.0 °F 50% 30.15 in 10.0 mi Calm Calm - N/A   Clear
9:53 PM 61.0 °F 46.0 °F 58% 30.17 in 10.0 mi Calm Calm - N/A   Scattered Clouds
10:53 PM 60.1 °F 45.0 °F 57% 30.18 in 10.0 mi Calm Calm - N/A   Scattered Clouds
11:53 PM 60.8 °F 46.4 °F 59% 30.21 in 10.0 mi SW 3.5 mph - N/A   Clear